DW9245 Weather Reports


Display with metric or nautical units.
time (UTC)temp
F
wind
direction
speed
MPH
gust
MPH
rain 1hr
in
rain 24hr
in
rain mn
in
humidity
%
barometer
mb
20181121195009 53 180 2.0 0.0 0.00 0.00 0.00 70 1013.6
20181121194009 52 0 1.0 0.0 0.00 0.00 0.00 71 1013.7
20181121192008 52 0 2.0 0.0 0.00 0.00 0.00 66 1013.8
20181121190008 52 45 4.0 0.0 0.00 0.00 0.00 70 1014.4
20181121185008 51 0 2.0 0.0 0.00 0.00 0.00 72 1014.3
20181121184008 52 135 0.0 0.0 0.00 0.00 0.00 72 1014.3
20181121183008 52 45 2.0 0.0 0.00 0.00 0.00 69 1014.4
20181121181008 52 180 0.0 0.0 0.00 0.00 0.00 68 1014.5
20181121174009 53 180 0.0 0.0 0.00 0.00 0.00 69 1015.4
20181121173010 53 0 1.0 0.0 0.00 0.00 0.00 69 1015.5
20181121171009 53 180 4.0 0.0 0.00 0.00 0.00 68 1015.6
20181121170009 53 0 0.0 0.0 0.00 0.00 0.00 69 1015.3
20181121165009 52 225 0.0 0.0 0.00 0.00 0.00 69 1015.0
20181121164008 52 225 2.0 0.0 0.00 0.00 0.00 70 1015.2
20181121163009 52 0 0.0 0.0 0.00 0.00 0.00 69 1015.4
20181121162009 52 0 2.0 0.0 0.00 0.00 0.00 70 1016.0
20181121160008 52 225 2.0 0.0 0.00 0.00 0.00 68 1016.6
20181121155009 53 225 2.0 0.0 0.00 0.00 0.00 69 1016.5
20181121152009 53 180 2.0 0.0 0.00 0.00 0.00 68 1017.0
20181121144011 53 45 0.0 0.0 0.00 0.00 0.00 69 1016.7
20181121142010 54 158 2.0 0.0 0.00 0.00 0.00 68 1016.8
20181121140010 52 135 2.0 0.0 0.00 0.00 0.00 69 1017.5
20181121135008 54 180 2.0 0.0 0.00 0.00 0.00 69 1017.7
20181121133009 55 90 2.0 0.0 0.00 0.00 0.00 66 1017.3
20181121130008 53 0 0.0 0.0 0.00 0.00 0.00 66 1017.1
20181121125009 54 270 0.0 0.0 0.00 0.00 0.00 65 1017.3
20181121123008 54 225 1.0 0.0 0.00 0.00 0.00 64 1018.0
20181121122009 54 270 2.0 0.0 0.00 0.00 0.00 65 1017.9
20181121121008 54 45 2.0 0.0 0.00 0.00 0.00 65 1017.5
20181121120009 54 135 0.0 0.0 0.00 0.00 0.00 65 1018.1
20181121114008 54 180 2.0 0.0 0.00 0.00 0.00 65 1018.3
20181121113008 54 45 2.0 0.0 0.00 0.00 0.00 66 1018.4
20181121112009 54 135 0.0 0.0 0.00 0.00 0.00 66 1018.0
20181121104008 55 90 2.0 0.0 0.00 0.00 0.00 63 1018.1
20181121103009 56 135 1.0 0.0 0.00 0.00 0.00 62 1017.8
20181121100008 56 45 0.0 0.0 0.00 0.00 0.00 61 1017.8
20181121095009 57 180 0.0 0.0 0.00 0.00 0.00 60 1017.9
20181121092009 58 180 0.0 0.0 0.00 0.00 0.00 54 1018.3
20181121091009 57 68 0.0 0.0 0.00 0.00 0.00 53 1018.3
20181121090011 58 270 0.0 0.0 0.00 0.00 0.00 52 1018.4
20181121083008 60 225 2.0 0.0 0.00 0.00 0.00 48 1018.5
20181121082008 60 225 2.0 0.0 0.00 0.00 0.00 49 1018.4
20181121080011 60 90 0.0 0.0 0.00 0.00 0.00 48 1018.4
20181121075009 60 180 1.0 0.0 0.00 0.00 0.00 48 1018.6
20181121074009 61 135 1.0 0.0 0.00 0.00 0.00 46 1018.4
20181121072008 60 0 0.0 0.0 0.00 0.00 0.00 46 1018.4
20181121070009 60 180 1.0 0.0 0.00 0.00 0.00 47 1018.6
20181121055008 62 225 0.0 0.0 0.00 0.00 0.00 45 1018.7
20181121053008 63 158 4.0 0.0 0.00 0.00 0.00 44 1018.7
20181121052008 63 225 2.0 0.0 0.00 0.00 0.00 44 1018.8
20181121044009 62 45 4.0 0.0 0.00 0.00 0.00 46 1019.1
20181121043009 62 135 2.0 0.0 0.00 0.00 0.00 46 1019.1
20181121040009 63 45 4.0 0.0 0.00 0.00 0.00 44 1019.6
20181121032009 61 180 3.0 0.0 0.00 0.00 0.00 45 1020.1
20181121025009 60 225 2.0 0.0 0.00 0.00 0.00 44 1020.9
20181121022009 55 45 2.0 0.0 0.00 0.00 0.00 52 1022.1
20181121020009 56 0 4.0 0.0 0.00 0.00 0.00 52 1022.5
20181121014008 54 90 3.0 0.0 0.00 0.00 0.00 60 1023.3
20181121013008 54 135 3.0 0.0 0.00 0.00 0.00 61 1023.6
20181121012009 53 180 5.0 0.0 0.00 0.00 0.00 64 1023.9
20181121011011 53 225 2.0 0.0 0.00 0.00 0.00 64 1024.0
20181121005009 51 180 4.0 0.0 0.00 0.00 0.00 68 1024.1
20181121003008 50 135 3.0 0.0 0.00 0.00 0.00 69 1024.5
20181121002009 50 135 3.0 0.0 0.00 0.00 0.00 69 1024.3
20181121001008 49 180 2.0 0.0 0.00 0.00 0.00 68 1024.2
20181120234009 48 0 2.0 0.0 0.00 0.00 0.00 72 1023.9
20181120233008 48 0 2.0 0.0 0.00 0.00 0.00 75 1024.0
20181120232008 46 0 0.0 0.0 0.00 0.00 0.00 77 1023.9
20181120230011 45 45 0.0 0.0 0.00 0.00 0.00 79 1023.8
20181120225009 45 0 0.0 0.0 0.00 0.00 0.00 80 1023.8
20181120223107 43 270 0.0 0.0 0.00 0.00 0.00 82 1023.9
20181120222008 44 180 2.0 0.0 0.00 0.00 0.00 80 1023.7
20181120220008 43 180 0.0 0.0 0.00 0.00 0.00 81 1023.6
20181120215009 45 180 2.0 0.0 0.00 0.00 0.00 81 1023.5
20181120213008 45 90 2.0 0.0 0.00 0.00 0.00 81 1023.7
20181120212009 45 225 0.0 0.0 0.00 0.00 0.00 80 1023.8
20181120210008 44 180 0.0 0.0 0.00 0.00 0.00 81 1023.6
20181120205009 44 270 0.0 0.0 0.00 0.00 0.00 80 1023.4
20181120203009 44 0 0.0 0.0 0.00 0.00 0.00 81 1022.8
20181120202008 44 0 2.0 0.0 0.00 0.00 0.00 81 1022.8
20181120201008 44 0 2.0 0.0 0.00 0.00 0.00 81 1022.7